User: anonymous   Login
Location: Cuzcurrita-R�o Tir�n
(42.5415°N, 2.9642°W)
Time: 05:22:20
(UTC+00:00)
Language:

ARGOS - Orbit

View from above orbital plane
View from above orbital plane
View from above satellite
View from above satellite

Ground track
Ground track

The orbit data is extracted from the following two-line orbital elements,

1 25634U 99008A   21112.71767525 -.00000013  00000-0  13358-4 0  9992
2 25634  98.4246 143.1303 0011396 100.3738 259.8724 14.19393134147841
Epoch (UTC): 22 April 2021 17:13:27
Eccentricity: 0.0011396
inclination: 98.4246°
perigee height: 819 km
apogee height: 835 km
right ascension of ascending node: 143.1303°
argument of perigee: 100.3738°
revolutions per day: 14.19393134
mean anomaly at epoch: 259.8724°
orbit number at epoch: 14784

The dashed part of the orbit path shows where the satellite is in the earth's shadow,  

DLR